Большое Пикино

Россия / Нижегородская область     56°20′52″N   44°11′30″E
темп.,
°C
ветер,
м/с
пор.,
м/с
влажн.,
%
обл.,
%
осадки,
мм/ч
давл.,
гПа
погр.,
м
14 мая, пт
пт1400:00+14ююз11940 0.0 101814
03:00+13юз119593 0.0 101910
06:00+15ссв1190100 0.0 101972
09:00+19св1271100 0.0 1019543
12:00+23вюв126063 0.1 10181195
15:00+23ю236424 1.6 10181170
18:00+22ююз1371100 0.4 1017377
21:00+18вюв2284100 0.4 101620
15 мая, сб
сб1500:00+17вюв2487100 0.0 101667
03:00+16ююв31091100 1.0 1015222
06:00+17юв2690100 1.4 1015180
09:00+22ююв4671100 1.4 1014441
12:00+25ю6955100 0.0 1013911
15:00+26ю611535 0.0 10131149
18:00+23ю6125923 0.0 1013893
21:00+19ююз4107337 0.0 1013287
16 мая, вс
вс1600:00+16ю22875 0.0 101342
03:00+15ююз23928 0.0 101447
06:00+17ююз258644 0.0 1014168
09:00+21юз4667100 0.0 1015715
12:00+23юз5850100 0.0 10151559
15:00+24юз484798 0.0 10142134
18:00+20ю36730 0.2 1014326
21:00+16ю36890 0.2 101588
17 мая, пн
пн1700:00+15юз23838 0.0 101644
03:00+14юз118394 0.0 101711
06:00+16ююв127990 0.0 101765
09:00+22юв12615 0.0 1017526
12:00+25ююв23507 0.0 10171211
15:00+27ююв345085 0.0 10161409
18:00+25юв23635 0.0 1015158
21:00+20юв238098 0.0 101548
18 мая, вт
вт1800:00+17ююв237714 0.0 101535
03:00+16юв22755 0.0 101524
06:00+18юв26708 0.0 1015147
09:00+24ююв35481 0.0 1014373
12:00+28ююв47394 0.0 10141129
15:00+28ююв57390 0.0 10141414
18:00+25юв49565 0.0 1013403
21:00+19юв387821 0.0 1013138